SCP
0 0 0 0 0 0 0 0 0 0 0 0 0 0 0 0 0 0 0 0 0 0 0 0 0 0 0 0 0 0 0 0 0 0 0 0 0 0 0 0 0 0 0 0 0 0 0 0 0
0 0 0 0 0 0 0 0 0 0 0 0 0 0 0 0 0 0 0 0 0 0 0 0 0 0 0 0 0 0 0 0 0 0 0 0 0 0 0 0 0 0 0 0 0 0 0 0 0
0 0 0 0 0 0 0 0 0 0 0 0 0 0 0 0 0 0 0 0 0 0 0 0 0 0 0 0 0 0 0 0 0 0 0 0 0 0 0 0 0 0 0 0 0 0 0 0 0
0 0 0 0 0 0 0 0 0 0 0 0 0 0 0 0 0 0 0 0 0 0 0 0 0 0 0 0 0 0 0 0 0 0 0 0 0 0 0 0 0 0 0 0 0 0 0 0 0
0 0 0 0 0 0 0 0 0 0 0 0 0 0 0 0 0 0 0 0 0 0 0 0 0 0 0 0 0 0 0 0 0 0 0 0 0 0 0 0 0 0 0 0 0 0 0 0 0
0 0 0 0 0 0 0 0 0 0 0 0 0 0 0 0 0 0 0 0 0 0 0 0 0 0 0 0 0 0 0 0 0 0 0 0 0 0 0 0 0 0 0 0 0 0 0 0 0
0 0 0 0 0 0 0 0 0 0 0 0 0 0 0 0 0 0 0 0 0 0 0 0 0 0 0 0 0 0 0 0 0 0 0 0 0 0 0 0 0 0 0 0 0 0 0 0 0
0 0 0 0 0 0 0 0 0 0 0 0 0 0 0 0 0 0 0 0 0 0 0 0 -0 -0 -0 0 0 0 0 0 0 0 0 0 0 0 0 0 0 0 0 0 0 0 0 0 0
0 0 0 0 0 0 0 0 0 0 0 0 0 0 0 0 1 0 0 0 0 0 0 -0 -0 -0 -0 -0 0 0 0 0 0 0 0 0 0 0 0 0 0 0 0 0 0 0 0 0 0
0 0 0 0 0 0 0 0 0 0 0 0 0 0 0 1 1 1 0 0 0 0 0 0 -0 -0 -0 -0 -0 -0 -0 0 0 0 0 0 -0 -0 0 0 0 0 0 0 0 0 0 0 0
0 0 0 0 0 0 0 0 0 0 0 0 0 0 0 0 1 1 0 0 0 0 0 0 0 -0 -0 -0 -0 -0 -0 -0 -0 -0 -0 -0 0 0 0 0 0 0 0 0 0 0 0 0 0
0 0 0 0 0 0 0 0 0 0 0 0 0 0 0 0 0 0 0 0 0 0 0 0 0 0 0 0 -0 -0 -0 -0 -0 0 0 0 0 0 0 0 0 0 0 0 0 0 0 0 0
0 0 0 0 0 0 0 0 0 0 0 0 0 0 0 0 0 0 0 0 0 0 0 0 0 0 0 0 0 0 0 0 0 0 0 0 0 0 0 0 0 0 0 0 0 0 0 0 0
-0 -0 0 0 0 0 0 0 0 0 0 0 0 0 0 0 0 0 0 0 0 0 0 0 0 0 0 0 0 0 0 0 0 0 0 0 0 0 0 0 0 0 0 0 0 0 0 0 0
-0 0 0 0 0 0 0 0 0 0 0 0 0 0 0 0 0 1 1 1 0 0 0 0 0 0 0 0 0 0 0 0 0 0 0 0 0 0 0 0 0 0 0 0 0 0 0 0 0
0 0 0 0 0 0 0 0 0 0 0 0 0 0 0 0 0 1 1 1 1 0 0 0 0 0 0 0 0 0 0 0 0 0 0 0 0 0 0 0 0 0 0 0 0 0 0 0 0
0 0 0 0 0 0 0 0 0 0 0 0 0 0 0 0 0 1 1 1 1 1 1 1 0 0 0 0 0 0 0 0 0 0 0 0 0 0 0 0 0 0 0 0 0 0 0 0 0
0 0 0 0 0 0 0 0 0 0 0 0 0 0 0 0 1 1 1 1 1 1 1 1 1 0 0 0 0 0 0 0 0 0 0 0 0 0 0 0 0 0 0 0 0 0 0 0 0
0 0 0 0 0 0 0 0 0 0 0 0 0 0 0 0 1 1 1 1 1 1 1 1 1 1 0 0 0 0 0 0 0 0 0 0 0 0 0 0 0 0 0 0 0 0 0 0 0
0 0 0 0 0 0 0 0 0 0 0 0 1 1 0 1 1 1 1 1 1 1 1 1 1 1 1 0 0 0 0 0 0 0 0 0 0 0 0 0 0 0 0 0 0 0 0 0 0
0 0 0 0 0 0 0 0 0 0 0 0 1 1 1 1 1 1 1 1 1 1 1 1 1 1 1 1 0 0 0 0 0 0 0 0 0 0 0 0 0 0 0 0 0 0 0 0 0
0 0 0 0 0 0 0 0 0 0 0 0 1 1 1 1 1 1 1 1 1 1 1 1 1 1 1 1 1 1 0 0 0 0 0 0 0 0 0 0 0 0 0 0 0 0 0 0 0
0 0 0 0 0 0 0 0 0 0 0 0 1 1 1 1 1 1 1 1 1 1 1 1 1 1 1 1 1 1 1 0 0 0 0 0 0 0 0 0 0 0 0 0 0 0 0 0 0
0 0 0 0 0 0 0 0 0 0 0 0 1 1 1 1 1 1 1 1 1 1 1 1 1 1 1 1 1 1 1 0 0 0 0 0 0 0 0 0 0 0 0 0 0 0 0 0 0
-0 -0 0 0 0 0 0 0 0 0 0 1 1 1 1 1 1 1 1 1 1 2 2 1 1 1 1 1 1 1 1 0 0 0 0 0 0 0 0 0 0 0 0 0 0 0 0 0 0
0 -0 -0 -0 0 0 0 0 0 0 0 0 1 1 1 1 1 1 1 1 1 1 2 1 1 1 1 1 1 1 1 0 0 0 0 0 0 0 0 0 0 0 0 0 0 0 0 0 0
0 -0 -0 -0 -0 0 0 0 0 0 0 0 1 1 1 1 1 1 1 1 1 1 1 1 1 1 1 1 1 1 1 1 0 0 0 0 0 0 0 0 0 0 0 0 0 0 0 0 0
0 0 0 0 0 0 0 0 0 0 0 0 1 1 1 1 1 2 2 2 1 1 1 1 1 1 1 1 1 1 1 1 1 0 0 0 0 0 0 0 0 0 0 0 0 0 0 0 0
0 0 0 0 0 0 0 0 0 0 0 1 1 1 1 1 1 2 2 2 1 1 1 1 1 1 1 1 1 1 1 1 1 1 0 0 0 0 0 0 0 0 0 0 0 0 0 0 0
0 0 0 0 0 0 0 0 0 0 0 1 1 1 1 1 2 2 2 2 1 1 1 1 1 1 1 1 1 1 1 1 1 1 0 0 0 0 0 0 0 0 0 0 0 0 0 0 0
Wind_Speed
6 4 1 2 6 6 5 4 8 9 7 8 11 11 10 9 7 10 5 11 11 8 6 10 13 15 16 16 16 17 18 18 19 18 18 18 19 19 19 18 18 17 17 17 17 16 16 15 15
3 1 2 4 7 5 4 6 12 12 12 12 13 13 11 11 11 11 7 10 11 9 6 9 14 15 16 16 16 16 17 18 18 18 18 18 18 18 18 17 17 16 16 16 16 15 15 14 14
3 1 4 5 4 4 4 8 14 14 11 9 8 8 8 9 10 7 9 13 10 8 6 9 15 15 15 15 15 15 16 17 17 17 17 17 17 17 17 16 16 15 15 15 15 14 14 13 12
1 4 5 5 4 3 6 9 16 15 11 10 11 9 6 7 7 12 15 14 12 8 6 9 15 15 15 15 14 15 15 16 16 16 16 16 16 16 16 16 15 14 14 14 13 13 12 11 10
3 5 6 4 3 4 6 9 13 12 7 10 12 11 8 8 18 18 16 15 12 8 6 8 14 15 15 14 14 14 14 15 15 15 15 15 15 15 15 14 14 13 13 12 12 11 10 10 9
4 5 5 2 2 4 6 10 14 16 16 14 14 11 6 12 18 17 15 13 12 10 7 8 14 14 14 14 14 13 14 14 15 15 14 14 14 14 13 13 13 12 11 11 10 9 9 8 8
4 4 3 3 3 5 7 8 13 15 14 10 12 10 7 11 14 16 14 13 11 10 8 6 7 9 13 14 13 13 14 13 14 14 14 13 13 13 12 12 11 11 10 9 8 8 7 7 7
5 5 2 2 5 5 7 7 10 15 11 13 9 9 11 12 15 15 13 12 11 9 7 6 5 5 5 7 12 13 13 13 13 13 13 12 12 12 11 10 10 10 9 8 7 6 5 5 5
4 6 2 4 6 5 8 10 7 8 12 7 5 9 15 18 18 16 13 10 9 9 6 6 6 5 5 5 9 9 11 11 11 10 12 9 4 5 6 8 9 9 8 7 5 4 3 3 3
5 4 5 5 7 9 11 12 9 8 10 9 13 13 15 17 17 16 15 13 11 10 9 7 7 6 6 6 5 3 4 4 4 3 5 3 3 3 4 7 8 7 6 5 4 2 1 1 1
2 4 3 4 7 9 11 8 6 13 10 15 20 19 16 15 14 14 13 13 12 12 11 9 8 7 6 4 4 2 2 3 3 4 4 3 2 2 2 2 2 2 3 1 1 0 0 0 0
0 2 2 4 8 8 9 7 7 8 12 17 19 19 16 15 14 14 13 11 11 11 10 9 9 7 6 5 4 4 3 3 3 3 4 3 2 2 2 1 1 1 1 1 1 1 1 1 1
1 2 1 5 8 9 10 8 9 8 14 16 18 16 15 14 11 10 12 11 10 10 10 10 9 9 7 6 4 4 4 4 4 4 4 5 3 3 3 2 2 2 1 2 1 1 1 1 1
3 3 2 3 7 8 12 9 9 11 16 17 16 14 13 14 13 11 11 10 10 9 9 8 8 8 7 6 5 4 4 4 4 3 5 5 4 4 3 3 2 2 2 2 2 2 1 1 2
3 3 4 2 5 7 12 6 8 16 17 16 15 13 12 12 12 13 13 12 11 10 9 8 8 7 7 6 5 4 4 4 4 4 5 5 5 4 4 3 2 2 2 2 1 1 1 1 1
4 3 1 4 4 5 10 6 8 15 18 16 14 14 12 11 12 12 12 11 11 10 9 9 9 8 7 5 4 3 3 4 3 3 3 4 5 5 4 3 2 2 1 1 1 1 1 0 0
4 0 3 5 3 5 7 8 10 12 15 15 14 14 13 11 10 11 12 12 12 12 10 8 7 7 6 5 4 4 3 4 3 3 3 3 4 5 4 3 2 2 2 1 2 1 1 1 1
3 2 3 4 4 5 6 8 11 12 14 14 13 12 13 14 12 13 13 12 11 11 10 9 8 7 6 4 3 2 3 2 3 3 3 4 3 4 4 2 2 2 2 1 1 1 1 1 1
4 4 6 7 5 5 9 11 12 12 12 13 12 12 12 13 11 11 12 12 12 10 10 9 9 7 6 4 3 3 3 2 2 3 4 4 4 4 4 3 2 3 2 2 2 1 1 0 1
6 6 6 6 2 4 7 7 8 10 13 14 14 14 13 10 10 11 12 12 13 12 11 10 10 9 7 5 4 3 3 3 3 3 3 4 4 4 4 4 3 3 2 2 2 2 1 1 1
7 5 5 4 3 4 7 1 3 5 5 8 11 12 12 14 14 14 14 13 13 13 13 12 11 9 8 7 4 3 2 1 1 2 2 3 5 5 4 5 4 3 3 3 3 3 3 2 1
7 6 4 2 3 1 4 4 7 6 6 9 11 12 12 12 12 13 13 13 15 14 12 11 11 10 8 8 6 6 5 4 4 3 3 3 4 4 5 5 5 4 3 3 3 3 3 3 1
7 5 2 2 3 1 1 4 7 3 6 10 12 13 13 14 14 14 15 15 14 13 12 11 10 9 9 8 8 7 5 4 3 3 4 4 4 4 5 5 4 4 3 4 3 3 3 3 3
4 2 5 6 6 0 4 4 6 6 12 12 12 13 14 14 14 13 13 11 10 11 11 11 10 10 9 9 8 8 7 5 5 4 5 4 3 3 4 5 4 4 4 4 4 4 4 3 3
3 6 4 5 4 5 4 3 9 10 12 15 15 14 13 13 12 12 12 12 12 13 13 12 12 11 10 10 8 8 8 7 7 6 6 5 3 3 5 4 4 4 4 5 4 4 4 4 3
4 10 9 5 4 4 2 4 9 8 9 10 11 11 11 11 11 12 14 14 13 14 13 12 13 11 10 10 9 7 7 6 5 6 5 5 4 4 4 4 5 5 5 4 3 3 4 3 3
5 5 9 8 2 0 4 5 6 2 2 5 6 8 9 10 11 12 12 12 12 13 13 13 13 11 11 10 9 7 7 6 6 5 5 4 4 4 5 5 5 5 4 4 4 3 3 3 3
7 7 6 6 4 2 4 3 3 3 2 3 5 7 8 8 8 9 9 10 10 10 10 11 11 12 10 10 9 8 7 7 6 4 5 5 5 4 4 5 5 5 4 4 4 3 3 3 3
3 4 6 5 6 6 2 6 5 6 5 5 5 6 8 9 9 8 8 8 8 8 9 9 9 9 9 10 9 8 7 6 5 5 5 5 4 4 4 4 4 4 4 4 3 3 3 3 2
6 6 8 6 3 5 4 7 6 2 3 5 6 5 7 8 7 8 7 6 6 6 7 8 9 9 10 9 8 8 6 6 6 6 5 4 4 4 4 4 4 3 3 3 3 3 3 3 2
Wind_Direction
298 287 157 58 55 57 83 95 98 86 69 64 77 81 78 63 95 117 135 128 123 116 107 103 99 98 98 96 95 96 97 97 98 98 99 101 102 103 103 103 102 102 103 103 103 103 102 102 102
293 300 67 56 73 76 72 100 93 97 118 108 82 80 75 72 87 110 123 128 123 117 109 108 105 101 101 100 98 98 99 100 101 101 101 102 104 104 104 104 103 104 104 104 103 103 103 101 102
281 110 77 69 83 119 115 111 110 109 111 99 91 69 72 101 110 116 133 130 119 111 106 114 110 106 104 101 101 102 103 103 104 104 105 106 107 106 106 105 104 104 104 105 105 105 103 102 101
34 47 52 71 90 134 127 126 116 111 88 80 94 78 72 103 112 127 133 129 120 115 113 117 114 112 109 106 105 104 106 107 107 108 108 109 109 109 109 109 108 107 107 106 106 105 104 102 99
67 65 54 54 72 92 119 125 122 109 90 93 97 97 82 95 118 129 134 130 126 122 118 120 118 117 115 112 110 109 109 110 110 111 111 111 112 112 111 111 110 109 108 107 106 105 102 101 95
53 66 72 77 79 101 123 124 109 103 111 109 106 104 103 126 131 137 136 132 131 129 123 123 124 121 119 117 114 113 115 116 115 114 114 115 114 114 113 113 113 112 111 111 109 108 104 100 95
104 95 127 140 115 122 136 128 121 126 127 129 127 108 123 140 140 138 133 131 130 130 126 119 123 124 125 122 119 118 121 122 120 120 120 120 118 116 116 116 118 118 118 118 116 111 104 96 92
134 102 101 137 139 141 140 122 131 131 120 129 130 129 150 154 139 132 129 129 131 132 134 129 124 120 121 123 126 125 125 127 129 127 126 125 124 122 121 119 123 124 124 124 121 113 104 93 91
107 86 152 182 153 144 130 117 120 110 122 138 115 127 145 141 135 132 130 131 138 141 146 144 139 135 133 136 137 132 131 130 130 129 130 123 109 111 119 128 131 132 133 135 133 125 107 82 76
97 132 205 188 156 144 137 132 133 118 115 104 106 117 130 135 139 141 146 150 153 156 162 161 157 156 157 150 132 131 132 130 127 129 130 125 128 133 135 138 142 143 145 149 156 160 124 65 57
144 181 197 141 143 138 139 137 120 127 133 143 141 143 143 142 146 150 155 158 161 164 165 167 169 169 168 148 149 152 140 145 147 151 146 138 136 133 128 128 139 143 157 158 211 274 328 281 111
280 255 167 149 146 141 140 128 116 134 155 153 147 147 146 151 158 158 158 161 160 163 167 167 171 170 171 160 164 165 159 160 165 170 161 147 143 149 155 165 172 176 188 198 240 257 263 238 181
345 292 285 138 131 134 122 123 122 130 138 142 143 147 151 156 161 160 158 160 155 158 162 165 167 169 167 161 173 169 169 170 174 168 166 159 155 164 167 182 188 197 192 188 199 217 233 226 159
275 299 310 125 125 128 119 118 113 139 143 148 152 156 159 161 160 158 158 159 157 157 159 160 157 161 158 160 169 168 172 169 165 168 168 163 161 161 159 169 175 184 183 182 181 180 179 169 139
331 0 356 116 127 138 113 97 138 152 152 154 160 163 164 164 161 164 166 163 160 157 155 156 155 151 151 155 162 159 162 161 163 168 165 160 160 159 156 161 170 183 174 161 145 145 89 107 126
3 32 344 272 148 160 119 145 167 159 158 160 166 168 169 171 170 169 166 162 159 157 157 163 160 153 153 149 147 151 151 150 160 162 155 161 159 153 147 155 177 182 154 148 148 126 89 76 128
13 326 243 276 204 156 122 157 176 168 165 166 169 171 174 174 174 173 169 166 164 163 161 163 156 157 158 153 149 147 144 147 156 156 153 166 163 153 149 162 176 162 146 162 179 136 149 172 213
237 245 263 245 238 142 135 162 169 175 174 171 171 175 176 179 182 177 172 168 166 165 164 161 160 164 157 147 135 120 129 151 160 164 168 167 164 154 144 157 167 154 142 150 145 142 147 186 210
240 270 273 264 246 150 159 163 174 178 178 176 176 179 184 186 180 172 170 169 166 166 166 167 166 170 160 151 152 149 163 172 173 180 176 174 174 163 153 156 160 157 159 174 166 147 146 256 152
258 265 277 294 301 131 147 165 184 182 186 183 181 184 187 180 170 173 173 172 173 173 173 171 174 173 172 169 164 163 162 175 180 183 182 182 178 176 173 169 174 170 163 169 171 157 148 265 168
260 233 239 248 353 71 110 47 232 216 198 187 186 184 181 180 177 179 180 180 177 179 179 179 178 176 176 170 153 146 124 123 154 185 197 203 193 190 182 180 179 180 172 187 203 183 175 205 259
255 248 225 184 100 277 131 175 257 221 206 201 194 189 185 184 180 181 182 183 185 185 181 177 176 176 176 171 168 169 175 186 200 187 191 208 206 200 194 187 184 189 190 197 211 200 188 173 224
229 246 219 147 120 67 25 142 260 205 205 214 202 193 190 189 186 187 189 188 187 183 181 178 175 178 178 178 178 179 185 190 188 179 188 203 211 209 204 195 192 193 196 201 208 201 197 184 192
217 22 28 51 72 44 236 157 251 214 203 203 201 194 193 189 188 191 190 181 180 179 180 178 177 183 182 182 183 186 187 186 181 192 197 206 215 220 214 204 199 200 202 207 210 207 205 206 203
108 88 40 9 18 250 245 174 235 231 207 196 194 194 191 182 180 181 181 179 181 182 182 180 181 187 187 186 189 190 191 189 191 194 198 199 209 220 219 211 205 208 210 211 205 205 215 210 208
168 135 151 176 206 273 305 221 247 235 213 192 186 180 179 176 180 182 185 184 183 184 182 180 183 187 187 190 195 193 192 192 195 195 195 199 206 213 213 209 212 214 211 211 201 208 220 215 218
149 157 161 133 163 246 283 283 311 340 152 166 165 167 174 178 181 180 178 177 178 181 184 184 183 183 185 189 190 192 193 193 197 197 195 199 206 212 209 207 212 218 213 206 192 206 218 212 215
153 152 101 113 142 237 296 288 254 262 199 168 160 172 174 169 166 166 165 167 174 179 183 182 184 187 186 187 191 197 198 197 193 189 198 205 210 208 200 208 211 214 213 204 195 206 218 208 222
139 118 112 124 151 153 228 276 240 211 186 168 162 158 157 157 162 159 163 170 170 163 173 177 183 183 184 187 190 195 194 193 189 196 205 208 209 202 201 202 201 200 206 201 196 205 204 210 229
158 165 141 145 201 156 158 265 281 203 149 131 130 136 138 137 142 148 154 153 154 164 171 175 181 185 187 187 186 191 189 187 192 202 208 202 204 202 196 185 187 194 195 193 189 202 206 202 212